154  
ASUS41 KPHI 150012  
RWRPHI  
 
REGIONAL WEATHER ROUNDUP  
NATIONAL WEATHER SERVICE MOUNT HOLLY NJ  
700 PM EST THU DEC 14 2017  
 
NOTE: "FAIR" INDICATES FEW OR NO CLOUDS BELOW 12,000 FEET WITH NO  
SIGNIFICANT WEATHER AND/OR S TO VISIBILITY
.  
 
* = STATION DOES NOT REPORT PRECIPITATION (E.G. RAIN, SNOW, ETC.)  
OR FOG.
 
 
NJZ015>026-150100-  
SOUTHERN NEW JERSEY  
 
CITY SKY/WX TMP DP RH WIND PRES REMARKS
 
POMONA PTCLDY 27 15 61 CALM 30.04R  
6HR MIN TEMP: 27; 6HR MAX TEMP: 38;  
 
WILDWOOD* PTCLDY 31 18 58 N5 30.06R WCI 26  
MILLVILLE PTCLDY 28 15 58 CALM 30.04R  
WRIGHTSTOWN CLOUDY 27 12 53 NW9 30.00R WCI 18  
MOUNT HOLLY PTCLDY 27 12 53 CALM 30.04R  
TRENTON CLEAR 27 10 49 CALM 30.02R  
6HR MIN TEMP: 27; 6HR MAX TEMP: 33;  
 

 
NJZ001>014-150100-  
NORTHERN NEW JERSEY  
 
CITY SKY/WX TMP DP RH WIND PRES REMARKS
 
SUSSEX CLEAR 20 6 55 VRB3 29.99R  
ANDOVER* N/A 21 3 45 VRB3 30.00R  
MORRISTOWN PTCLDY 23 7 50 NW3 30.02R  
NEWARK PTCLDY 26 7 44 NW10G20 30.02R WCI 16  
TETERBORO CLEAR 26 7 44 NW13G24 30.00R WCI 15  
CALDWELL CLEAR 23 7 50 NW5 30.02R WCI 17  
SOMERVILLE CLEAR 21 9 59 N3 30.01R  
ALLAIRE* CLEAR 26 12 55 W7 30.03R WCI 18  
TOMS RIVER* CLEAR 25 14 63 W3 30.04R  
 

 
PAZ043-044-047-054-055-060>062-066>071-150100-  
EASTERN PENNSYLVANIA  
 
CITY SKY/WX TMP DP RH WIND PRES REMARKS
 
PHILADELPHIA PTCLDY 31 9 39 NW8 30.05R WCI 23  
6HR MIN TEMP: 31; 6HR MAX TEMP: 35;  
 
NORTH PHILA CLEAR 29 11 47 NW7 30.04R WCI 22  
BLUE BELL* CLEAR 27 10 50 CALM 30.04R  
DOYLESTOWN CLEAR 24 9 52 NW6 30.00R WCI 17  
QUAKERTOWN* CLEAR 21 9 58 CALM 30.01R  
PERKASIE* FAIR 23 7 50 NW6 30.01R WCI 16  
POTTSTOWN CLEAR 23 9 55 CALM 30.03R  
LANCASTER PTCLDY 26 12 55 W7 30.02R WCI 18  
COATESVILLE CLOUDY 27 10 50 NW7 30.01R WCI 19  
READING CLOUDY 25 12 58 NW5 30.02R WCI 19  
6HR MIN TEMP: 24; 6HR MAX TEMP: 32;  
 
ALLENTOWN CLEAR 24 5 44 NW3 30.01R  
6HR MIN TEMP: 21; 6HR MAX TEMP: 31; 6HR PCP: TRACE;  
 
MOUNT POCONO CLEAR 13 4 67 NW10 29.88R WCI 0  
6HR MIN TEMP: 13; 6HR MAX TEMP: 20; 6HR PCP: TRACE;  
 
HAZLETON CLEAR 18 1 49 W3 29.96R  
LEHIGHTON FAIR 14 5 67 CALM 30.02R  
WILKES BARRE CLEAR 19 4 51 NW9 29.99R WCI 8  
 

 
DEZALL-MDZ008-012-015-019-020-150100-  
DELAWARE AND EASTERN MARYLAND  
 
CITY SKY/WX TMP DP RH WIND PRES REMARKS
 
WILMINGTON CLEAR 26 12 55 NW6 30.05R WCI 19  
6HR MIN TEMP: 25; 6HR MAX TEMP: 35;  
 
DOVER CLOUDY 28 19 69 NW5 30.04R WCI 23  
GEORGETOWN CLOUDY 28 19 69 NW3 30.04R  
6HR MIN TEMP: 26; 6HR MAX TEMP: 42;  
 
EASTON CLEAR 36 18 48 N3 30.08R  
ABERDEEN PTCLDY 30 18 59 CALM 30.06R  
PATUXENT PTCLDY 35 18 49 N10 30.04R WCI 27  
OCEAN CITY CLEAR 34 19 54 N10 30.04R WCI 26  
WALLOPS ISLAND CLEAR 31 20 63 N3 30.04R  
CAMBRIDGE CLEAR 36 18 48 N8 30.03R WCI 29  
SALISBURY CLEAR 32 18 56 CALM 30.04R  
 

 
PAZ001-021-NYZ056-072-MDZ011-DCZ001-150100-  
OTHER NEARBY LOCATIONS  
 
CITY SKY/WX TMP DP RH WIND PRES REMARKS
 
HARRISBURG MOCLDY 28 9 44 NW15 30.03R WCI 16  
STATE COLLEGE CLEAR 18 5 57 CALM 30.02R  
WILLIAMSPORT CLEAR 22 5 48 NW6 30.05R WCI 14  
BINGHAMTON CLEAR 9 2 73 NW5 29.91R WCI 1  
NEW YORK CITY CLEAR 26 7 44 VRB5 30.02R WCI 20  
BALTIMORE CLOUDY 32 15 49 NW3 30.05R  
WASHINGTON DC CLOUDY 35 16 45 N10 30.06R WCI 27  
 

 
 
 
CLICK HERE TO GO TO PREVIOUS BULLETINS.

The Nexlab PA Page
The Nexlab NJ Page
The Nexlab DE Page
The Nexlab MD Page Main Text Page